Skip Page Navigation
NASA JPL Caltech
NASA Logo - Jet Propulsion Laboratory + View the NASA Portal
+ Center for Near-Earth Object Studies
JPL Home Earth Solar System Stars & Galaxies Technology
JPL Solar System Dynamics
BODIES ORBITS EPHEMERIDES TOOLS PHYSICAL DATA DISCOVERY FAQ SITE MAP
IMPORTANT: The SSD Announcement email list is now available. Major changes are coming in the near future, including possible hostname and/or URL changes. To be notified of such changes, subscribe to this email list.

Please visit this page for more details.


JPL Small-Body Database Browser
Search: [ help ]  
15907 Robot (1997 TG10)
Classification: Main-belt Asteroid          SPK-ID: 2015907
Ephemeris | Orbit Diagram | Orbital Elements | Mission Design | Physical Parameters | Discovery Circumstances | Close-Approach Data ]

[ show orbit diagram ]
Orbital Elements at Epoch 2458600.5 (2019-Apr-27.0) TDB
Reference: JPL 19 (heliocentric ecliptic J2000)
 Element Value Uncertainty (1-sigma)   Units 
e .1307355690181858 3.5579e-08  
a 2.295782759559843 9.3555e-09 au
q 1.995642294146646 8.2095e-08 au
i 5.336216616589258 4.5036e-06 deg
node 205.4666655198631 4.1355e-05 deg
peri 91.37475479640609 4.4986e-05 deg
M 154.3308427319377 1.7611e-05 deg
tp 2458055.815722931110
(2017-Oct-29.31572293)
6.1277e-05 TDB
period 1270.558342543293
3.48
7.7665e-06
2.126e-08
d
yr
n .2833399993890744 1.732e-09 deg/d
Q 2.595923224973039 1.0579e-08 au
  Orbit Determination Parameters
   # obs. used (total)      864  
   data-arc span      8354 days (22.87 yr)  
   first obs. used      1996-03-27  
   last obs. used      2019-02-09  
   planetary ephem.      DE431  
   SB-pert. ephem.      SB431-N16  
   condition code      0  
   norm. resid. RMS      .5987  
   source      ORB  
   producer      Otto Matic  
   solution date      2019-Jul-12 19:34:40  

Additional Information
 Earth MOID = .98795 au 
 Jupiter MOID = 2.58375 au 
 T_jup = 3.578 
[ show covariance matrix ]

Ephemeris | Orbit Diagram | Orbital Elements | Mission Design | Physical Parameters | Discovery Circumstances | Close-Approach Data ]

Physical Parameter Table
Parameter Symbol Value Units Sigma Reference Notes
absolute magnitude H 15.7   n/a PDS3 (MPO 1734)  

15907 Robot           Discovered 1997 Oct. 6 by P. Pravec at Ondřejov.
The word "robot" was invented by Czech writer Josef Čapek for an artificial man in the famous play R. U. R. ("Rossum's Universal Robots") written by his brother Karel Čapek in 1920. Later it became a general term used for automated devices of various kinds.
NOTE: some special characters may not display properly (any characters within {} are an attempt to place the proper accent above a character)
Reference: 20010109/MPCPages.arcLast Updated: 2009-05-11

[ show close-approach data ]
Alternate Designations
 1997 TG10 = 1996 FS23 = 1996 GN20 
Ephemeris | Orbit Diagram | Orbital Elements | Mission Design | Physical Parameters | Discovery Circumstances | Close-Approach Data ]
ABOUT SSD CREDITS/AWARDS PRIVACY/COPYRIGHT GLOSSARY LINKS
FirstGov
(server date/time)  
NASA Home Page
Site Manager:   Ryan S. Park
Webmaster  Alan B. Chamberlin